Terminal Aerodrome Forecast
Issued by NWS Columbia, SC

Home | Current Version | Previous Version | Text Only | Print | Product List | Glossary On
Versions: 1 2 3 4 5 6 7 8 9 10 11 12 13 14 15 16 17 18 19 20 21 22 23 24 25 26 27 28 29 30 31 32 33 34 35 36 37 38 39 40 41 42
000
FTUS42 KCAE 240800 AAA
TAFAGS
TAF AMD
KAGS 240849Z 2409/2506 VRB04KT P6SM SCT120
      TEMPO 2409/2412 3SM BR SCT010 BKN120
     FM241300 25007KT P6SM SCT040 SCT250
     FM241500 25011G18KT P6SM SCT035 BKN150
     FM241700 26012G20KT P6SM VCSH SCT045 BKN100
     FM250000 27007KT P6SM SCT040 BKN080=

USA.gov is the U.S. government's official web portal to all federal, state and local government web resources and services.